Location: Newark
(47.0000°N, 7.6833°E)
Time: 18:44:47
(UTC+00:00)

Envisat - Visible Passes

Search period start: 25 August 2019 00:00
Search period end: 04 September 2019 00:00
Orbit: 764 x 766 km, 98.1° (Epoch: 25 August)

Date Brightness Start Highest point End Pass type
(mag) Time Alt. Az. Time Alt. Az. Time Alt. Az.
25 Aug 5.7 18:51:24 10° SW 18:55:10 21° W 18:58:58 10° NW visible
27 Aug 6.1 19:19:02 10° WSW 19:21:01 12° W 19:23:01 10° WNW visible
28 Aug 5.5 18:39:37 10° SSW 18:43:48 26° W 18:48:01 10° NW visible
30 Aug 5.9 19:06:40 10° SW 19:09:37 15° W 19:12:35 10° NW visible
02 Sep 5.8 18:54:39 10° SW 18:58:13 19° W 19:01:49 10° NW visible
